Content
SEND FEEDBACK

Daily
Averages
Monthly
Summary
United States of America

WILMINGTON, NORTH CAROLINA


Home > North America > United States > North Carolina
Elevation: 72 feet     Latitude: 34 16N     Longitude: 077 54W

WEATHER
 
SELECT A DAY
Number of Records: 212,356;   Date Range: 1/1/95 - 10/23/14
 
SHARE

PRINT THIS DATA

[ ← Previous Day ]
WEATHER ALMANAC - AUGUST 25, 2014
[ Next Day → ]
[ °C ]   °F
Weather ElementAverageHighLow
Temperature73.1 °F81 °F (6:53 pm)64 °F (3:53 am)
Dewpoint66.3 °F73 °F (8:53 am)60.1 °F (10:53 am)
Humidity79.5 %94 % (7:53 am)66 % (8:53 pm)
Barometer30.02 in30.06 in (2:53 pm)30.00 in (12:53 am)
Wind Speed11.9 mph17.3 mph (2:07 pm)
Wind Gust21.9 mph (8:48 pm)
Weather ElementAverage
Visibility9.1 mi
Wind DirectionNNE (24.8 °)

Weather ElementTotal
Precipitation0.04 in
Cooling Degree Days7.5 (Base 65)
Growing Degree Days22.5 (Base 50)
Averaged from 29 records on August 25, 2014
WEATHER CONDITIONS BREAKOUT
WIND DIRECTION BREAKOUT
WEATHER BY HOUR - AUGUST 25, 2014
[ °C ]   °F
Local TimeTemperatureDewpointHumidityBarometerVisibilityWind DirectionWind SpeedGust SpeedPrecipitationEventsConditions
12:53 AM68.0 °F60.8 °F78 %30.05 in10.0 miNNE (20°)13.8 mphMostly Cloudy
1:53 AM69.1 °F60.1 °F73 %30.03 in10.0 miNNE (20°)12.7 mphMostly Cloudy
2:53 AM66.0 °F61.0 °F84 %30.02 in10.0 miNorth (10°)11.5 mphClear
3:53 AM64.0 °F61.0 °F90 %30.01 in10.0 miNNE (30°)9.2 mphClear
4:53 AM64.4 °F60.8 °F88 %30.01 in10.0 miNorth (10°)10.4 mphClear
5:53 AM64.0 °F61.0 °F90 %30.00 in10.0 miNNE (30°)13.8 mph21.9 mphClear
6:53 AM64.9 °F61.0 °F87 %30.01 in10.0 miNNE (20°)11.5 mphPartly Cloudy
7:53 AM66.2 °F62.6 °F88 %30.02 in10.0 miNNE (30°)16.1 mph21.9 mphClear
8:53 AM70.0 °F63.0 °F78 %30.02 in10.0 miNNE (20°)16.1 mphClear
9:53 AM75.2 °F64.4 °F69 %30.03 in10.0 miNNE (20°)12.7 mphClear
10:53 AM78.1 °F66.0 °F66 %30.03 in10.0 miNNE (30°)11.5 mphMostly Cloudy
11:53 AM79.0 °F66.9 °F66 %30.04 in10.0 miNNE (20°)12.7 mphOvercast
12:53 PM79.0 °F68.0 °F69 %30.04 in10.0 miNNE (20°)11.5 mphOvercast
1:09 PM80.1 °F69.1 °F69 %30.03 in10.0 miNNE (20°)13.8 mphOvercast
1:53 PM80.1 °F69.1 °F69 %30.02 in10.0 miNNE (30°)15.0 mphOvercast
2:11 PM79.0 °F69.1 °F72 %30.02 in10.0 miNNE (20°)17.3 mph21.9 mphOvercast
2:35 PM80.1 °F69.1 °F69 %30.02 in10.0 miNorth (10°)13.8 mphOvercast
2:53 PM81.0 °F70.0 °F69 %30.02 in10.0 miNNE (20°)9.2 mph0.00 inOvercast
3:53 PM79.0 °F70.0 °F74 %30.01 in10.0 miNorth (10°)10.4 mph0.00 inOvercast
4:43 PM75.9 °F72.0 °F87 %30.01 in4.0 miNE (40°)11.5 mph0.01 inRainRain
4:45 PM75.0 °F72.0 °F90 %30.01 in2.5 miNNE (30°)9.2 mph0.01 inRainLight Rain
4:53 PM75.0 °F73.0 °F94 %30.01 in4.0 miNE (50°)5.8 mph0.02 inRainLight Rain
5:53 PM73.9 °F71.1 °F91 %30.02 in4.0 miNE (40°)11.5 mph0.00 inRainLight Rain
6:53 PM75.9 °F71.1 °F85 %30.02 in10.0 miNorth (10°)6.9 mph0.00 inOvercast
7:53 PM73.9 °F68.0 °F82 %30.02 in10.0 miNNE (30°)11.5 mphClear
8:53 PM73.9 °F66.9 °F79 %30.03 in10.0 miNNE (30°)13.8 mphClear
9:53 PM71.6 °F66.2 °F83 %30.05 in10.0 miNE (40°)12.7 mphScattered Clouds
10:53 PM69.8 °F64.4 °F83 %30.05 in10.0 miNE (40°)10.4 mphPartly Cloudy
11:53 PM69.1 °F64.0 °F84 %30.06 in10.0 miNNE (20°)9.2 mphClear
Hourly data recorded from KILM, located miles away from Wilmington, North Carolina







STORIES FROM OUR PARTNERS